• Em Portugal
  • Lista de países
  • Para 7 dias
  • Temperatura da água
  • Mapas de satélite
  • Mapa do tempo
  • Widgets de tempo
  • user-avatar
    Iniciar Sessão

    Previsão horária em Córdoba

    Hoje, 18 Fevereiro, Domingo

    Tempo Temperatura Precipitação Vento Pressão Humidade
    00:00 +26°C° 0 mm 2 m/s 720 mmHg 60%
    01:00 +25°C° 0 mm 2 m/s 720 mmHg 62%
    02:00 +25°C° 0 mm 2 m/s 720 mmHg 64%
    03:00 +25°C° 0 mm 2 m/s 719 mmHg 64%
    04:00 +24°C° 0 mm 2 m/s 719 mmHg 65%
    05:00 +24°C° 0 mm 2 m/s 719 mmHg 65%
    06:00 +26°C° 0 mm 2 m/s 719 mmHg 60%
    07:00 +27°C° 0 mm 2 m/s 719 mmHg 56%
    08:00 +29°C° 0 mm 1 m/s 720 mmHg 51%
    09:00 +31°C° 0 mm 2 m/s 719 mmHg 46%
    10:00 +33°C° 0 mm 3 m/s 719 mmHg 41%
    11:00 +35°C° 0 mm 4 m/s 719 mmHg 36%
    12:00 +35°C° 0,1 mm 4 m/s 719 mmHg 35%
    13:00 +36°C° 0,1 mm 4 m/s 718 mmHg 34%
    14:00 +36°C° 0,1 mm 3 m/s 717 mmHg 33%
    15:00 +35°C° 0,1 mm 3 m/s 717 mmHg 35%
    16:00 +34°C° 0,1 mm 3 m/s 716 mmHg 38%
    17:00 +33°C° 0,1 mm 3 m/s 716 mmHg 40%
    18:00 +31°C° 0,2 mm 2 m/s 716 mmHg 45%
    19:00 +29°C° 0,2 mm 2 m/s 716 mmHg 51%
    20:00 +27°C° 0,2 mm 2 m/s 716 mmHg 57%
    21:00 +27°C° 0,2 mm 2 m/s 717 mmHg 59%
    22:00 +26°C° 0,2 mm 2 m/s 717 mmHg 62%
    23:00 +25°C° 0,2 mm 2 m/s 717 mmHg 65%

    Amanhã, 19 Fevereiro, Segunda-feira

    Tempo Temperatura Precipitação Vento Pressão Humidade
    00:00 +25°C° 0,2 mm 2 m/s 717 mmHg 66%
    01:00 +25°C° 0,2 mm 2 m/s 716 mmHg 67%
    02:00 +24°C° 0,2 mm 2 m/s 716 mmHg 68%
    03:00 +24°C° 0 mm 1 m/s 716 mmHg 69%
    04:00 +24°C° 0 mm 1 m/s 716 mmHg 71%
    05:00 +23°C° 0 mm 1 m/s 716 mmHg 72%
    06:00 +25°C° 0,1 mm 1 m/s 717 mmHg 66%
    07:00 +27°C° 0,1 mm 1 m/s 717 mmHg 61%
    08:00 +29°C° 0,1 mm 1 m/s 718 mmHg 55%
    09:00 +31°C° 0 mm 1 m/s 718 mmHg 48%
    10:00 +33°C° 0 mm 1 m/s 718 mmHg 41%
    11:00 +36°C° 0 mm 2 m/s 718 mmHg 34%
    12:00 +36°C° 0 mm 2 m/s 717 mmHg 33%
    13:00 +36°C° 0 mm 2 m/s 717 mmHg 31%
    14:00 +37°C° 0 mm 3 m/s 717 mmHg 30%
    15:00 +36°C° 0 mm 3 m/s 716 mmHg 31%
    16:00 +36°C° 0 mm 3 m/s 716 mmHg 32%
    17:00 +36°C° 0 mm 3 m/s 716 mmHg 33%
    18:00 +33°C° 0,3 mm 3 m/s 716 mmHg 42%
    19:00 +30°C° 0,3 mm 3 m/s 717 mmHg 50%
    20:00 +27°C° 0,3 mm 3 m/s 717 mmHg 58%
    21:00 +26°C° 0,7 mm 3 m/s 717 mmHg 65%
    22:00 +24°C° 0,7 mm 3 m/s 718 mmHg 72%
    23:00 +22°C° 0,7 mm 4 m/s 718 mmHg 79%

    Depois de amanhã, 20 Fevereiro, Terça-feira

    Tempo Temperatura Precipitação Vento Pressão Humidade
    00:00 +22°C° 0,8 mm 3 m/s 718 mmHg 79%
    01:00 +22°C° 0,8 mm 3 m/s 718 mmHg 80%
    02:00 +23°C° 0,8 mm 2 m/s 718 mmHg 80%
    03:00 +23°C° 1 mm 2 m/s 718 mmHg 80%
    04:00 +23°C° 1 mm 1 m/s 718 mmHg 80%
    05:00 +23°C° 1 mm 1 m/s 718 mmHg 80%
    06:00 +24°C° 0,2 mm 1 m/s 719 mmHg 77%
    07:00 +25°C° 0,2 mm 2 m/s 719 mmHg 73%
    08:00 +26°C° 0,2 mm 2 m/s 720 mmHg 70%
    09:00 +27°C° 0,2 mm 2 m/s 720 mmHg 63%
    10:00 +28°C° 0,2 mm 3 m/s 721 mmHg 57%
    11:00 +29°C° 0,2 mm 3 m/s 721 mmHg 50%
    12:00 +30°C° 0,1 mm 3 m/s 720 mmHg 49%
    13:00 +30°C° 0,1 mm 3 m/s 720 mmHg 47%
    14:00 +30°C° 0,1 mm 3 m/s 720 mmHg 45%
    15:00 +31°C° 0 mm 3 m/s 720 mmHg 42%
    16:00 +33°C° 0 mm 3 m/s 719 mmHg 39%
    17:00 +34°C° 0 mm 3 m/s 719 mmHg 36%
    18:00 +31°C° 0,1 mm 3 m/s 720 mmHg 42%
    19:00 +28°C° 0,1 mm 3 m/s 720 mmHg 48%
    20:00 +26°C° 0,1 mm 3 m/s 721 mmHg 55%
    21:00 +24°C° 0,2 mm 3 m/s 722 mmHg 63%
    22:00 +22°C° 0,2 mm 4 m/s 722 mmHg 72%
    23:00 +20°C° 0,2 mm 4 m/s 723 mmHg 80%

    21 Fevereiro, Quarta-feira

    Tempo Temperatura Precipitação Vento Pressão Humidade
    00:00 +20°C° 0 mm 4 m/s 723 mmHg 79%
    01:00 +19°C° 0 mm 3 m/s 723 mmHg 77%
    02:00 +19°C° 0 mm 3 m/s 723 mmHg 76%
    03:00 +19°C° 0 mm 3 m/s 723 mmHg 74%
    04:00 +19°C° 0 mm 3 m/s 723 mmHg 73%
    05:00 +19°C° 0 mm 3 m/s 723 mmHg 71%
    06:00 +20°C° 0 mm 3 m/s 724 mmHg 66%
    07:00 +22°C° 0 mm 3 m/s 725 mmHg 61%
    08:00 +24°C° 0 mm 3 m/s 725 mmHg 57%
    09:00 +26°C° 0 mm 3 m/s 725 mmHg 50%
    10:00 +29°C° 0 mm 3 m/s 725 mmHg 44%
    11:00 +31°C° 0 mm 3 m/s 725 mmHg 38%
    12:00 +33°C° 0 mm 3 m/s 724 mmHg 34%
    13:00 +34°C° 0 mm 3 m/s 724 mmHg 30%
    14:00 +35°C° 0 mm 3 m/s 723 mmHg 26%
    15:00 +35°C° 0 mm 3 m/s 722 mmHg 26%
    16:00 +35°C° 0 mm 3 m/s 722 mmHg 26%
    17:00 +35°C° 0 mm 3 m/s 721 mmHg 26%
    18:00 +31°C° 0 mm 3 m/s 721 mmHg 32%
    19:00 +29°C° 0 mm 2 m/s 721 mmHg 37%
    20:00 +26°C° 0 mm 2 m/s 722 mmHg 43%
    21:00 +25°C° 0 mm 2 m/s 722 mmHg 45%
    22:00 +24°C° 0 mm 1 m/s 722 mmHg 48%
    23:00 +24°C° 0 mm 1 m/s 723 mmHg 50%

    22 Fevereiro, Quinta-feira

    Tempo Temperatura Precipitação Vento Pressão Humidade
    00:00 +23°C° 0 mm 1 m/s 723 mmHg 52%
    01:00 +23°C° 0 mm 1 m/s 723 mmHg 54%
    02:00 +23°C° 0 mm 1 m/s 723 mmHg 56%
    03:00 +22°C° 0 mm 1 m/s 723 mmHg 59%
    04:00 +22°C° 0 mm 1 m/s 723 mmHg 62%
    05:00 +22°C° 0 mm 1 m/s 723 mmHg 65%
    06:00 +23°C° 0 mm 1 m/s 723 mmHg 61%
    07:00 +25°C° 0 mm 2 m/s 724 mmHg 57%
    08:00 +26°C° 0 mm 2 m/s 724 mmHg 54%
    09:00 +29°C° 0 mm 3 m/s 724 mmHg 48%
    10:00 +32°C° 0 mm 4 m/s 724 mmHg 42%
    11:00 +34°C° 0 mm 5 m/s 724 mmHg 35%
    12:00 +35°C° 0 mm 5 m/s 723 mmHg 32%
    13:00 +36°C° 0 mm 5 m/s 723 mmHg 29%
    14:00 +37°C° 0 mm 5 m/s 722 mmHg 25%
    15:00 +37°C° 0 mm 5 m/s 722 mmHg 25%
    16:00 +36°C° 0 mm 5 m/s 721 mmHg 25%
    17:00 +36°C° 0 mm 5 m/s 721 mmHg 25%
    18:00 +33°C° 0 mm 5 m/s 721 mmHg 29%
    19:00 +30°C° 0 mm 4 m/s 721 mmHg 34%
    20:00 +27°C° 0 mm 3 m/s 721 mmHg 38%
    21:00 +26°C° 0 mm 3 m/s 721 mmHg 41%
    22:00 +25°C° 0 mm 2 m/s 721 mmHg 44%
    23:00 +25°C° 0 mm 2 m/s 722 mmHg 47%

    23 Fevereiro, Sexta-feira

    Tempo Temperatura Precipitação Vento Pressão Humidade
    00:00 +24°C° 0 mm 2 m/s 721 mmHg 49%
    01:00 +24°C° 0 mm 2 m/s 721 mmHg 51%
    02:00 +23°C° 0 mm 2 m/s 721 mmHg 53%
    03:00 +23°C° 0 mm 2 m/s 721 mmHg 54%
    04:00 +21°C° 0 mm 2 m/s 721 mmHg 55%
    05:00 +22°C° 0 mm 1 m/s 721 mmHg 57%
    06:00 +24°C° 0,1 mm 2 m/s 722 mmHg 54%
    07:00 +25°C° 0,1 mm 2 m/s 723 mmHg 51%
    08:00 +27°C° 0,1 mm 2 m/s 724 mmHg 48%
    09:00 +29°C° 0 mm 2 m/s 724 mmHg 43%
    10:00 +30°C° 0 mm 2 m/s 724 mmHg 39%
    11:00 +32°C° 0 mm 2 m/s 724 mmHg 35%
    12:00 +34°C° 0,1 mm 2 m/s 724 mmHg 35%
    13:00 +34°C° 0,1 mm 3 m/s 724 mmHg 35%
    14:00 +34°C° 0,1 mm 3 m/s 723 mmHg 35%
    15:00 +33°C° 0,4 mm 4 m/s 723 mmHg 40%
    16:00 +30°C° 0,4 mm 5 m/s 723 mmHg 46%
    17:00 +29°C° 0,4 mm 5 m/s 723 mmHg 51%
    18:00 +27°C° 0,4 mm 5 m/s 723 mmHg 61%
    19:00 +25°C° 0,4 mm 5 m/s 723 mmHg 70%
    20:00 +22°C° 0,4 mm 5 m/s 724 mmHg 79%
    21:00 +21°C° 0,3 mm 4 m/s 724 mmHg 83%
    22:00 +20°C° 0,3 mm 4 m/s 724 mmHg 87%
    23:00 +19°C° 0,3 mm 4 m/s 725 mmHg 90%
    Mostrar mais